EHI
0 0 0 0 0 0 0 0 0 0 0 0 0 0 1 2 3 3 3 1 0 0 1 1 1 0 0 0 0 0 0 0 0 0 0 0 0 0 0 0 0 0 0
0 0 0 0 0 0 0 0 0 0 0 0 0 0 0 1 2 2 1 0 0 0 0 0 0 0 0 0 0 0 0 0 0 0 0 0 0 0 0 0 0 0 0
0 0 0 0 0 0 0 0 0 0 1 1 1 0 0 0 1 1 0 0 0 0 0 0 0 0 0 0 0 0 0 0 0 0 0 0 0 0 0 0 0 0 0
0 0 0 0 0 0 0 0 0 0 1 1 1 0 0 0 0 0 0 0 0 0 0 0 0 0 0 0 0 0 0 0 0 0 0 0 0 0 0 0 0 0 0
0 0 0 0 0 0 0 0 0 0 0 0 0 0 0 0 0 0 0 0 0 0 0 0 0 0 0 0 0 0 0 0 0 0 0 0 0 0 0 0 0 0 0
0 0 0 0 0 0 0 0 0 0 0 0 0 0 0 0 0 0 0 0 0 0 0 0 0 0 0 0 0 0 0 0 0 0 0 0 0 0 0 0 0 0 0
0 0 0 0 0 0 0 0 0 0 0 0 0 0 0 0 0 0 0 0 0 0 0 0 0 0 0 0 0 0 0 0 0 0 0 0 0 0 0 0 0 0 0
0 0 0 0 0 0 0 0 0 0 0 0 0 0 0 0 0 0 0 0 0 0 0 0 0 1 0 0 0 0 0 0 0 0 0 0 0 0 0 0 0 0 0
0 0 0 0 0 0 0 0 0 0 0 0 0 0 0 0 0 0 0 0 0 0 0 0 0 0 0 0 0 0 0 0 0 0 0 0 0 0 0 0 0 0 0
0 0 0 0 0 0 0 0 0 0 0 0 0 0 0 0 0 0 0 0 0 0 0 0 0 0 0 0 0 0 0 0 0 0 0 0 0 0 0 0 0 0 0
0 0 0 0 0 0 0 0 0 0 0 0 0 0 0 0 0 0 0 0 0 0 0 0 0 0 0 0 0 0 0 0 0 0 0 0 0 0 0 0 0 0 0
0 0 0 0 0 0 0 0 0 0 0 0 0 0 0 0 0 0 0 0 0 0 0 0 0 0 0 0 0 0 0 0 0 0 0 0 0 0 0 0 0 0 0
0 0 0 0 0 0 0 0 0 0 0 0 0 0 0 0 0 0 0 0 0 0 0 0 0 0 0 0 0 0 0 0 0 0 0 0 0 0 0 0 0 0 0
0 0 0 0 0 0 0 0 0 0 0 0 0 0 0 0 0 0 0 0 0 0 0 0 0 0 0 0 0 0 0 0 0 0 0 0 0 0 0 0 0 0 0
0 0 0 0 0 0 0 0 0 0 0 0 0 0 0 0 0 0 0 0 0 0 0 0 0 0 0 0 0 0 0 0 0 0 0 0 0 0 0 0 0 0 0
0 0 0 0 0 0 0 0 0 0 0 0 0 0 0 0 0 0 0 0 0 0 0 0 0 0 0 0 0 0 0 0 0 0 0 0 0 0 0 0 0 0 0
0 0 0 0 0 0 0 0 0 0 0 0 0 0 0 0 0 0 0 0 0 0 0 0 0 0 0 0 0 0 0 0 0 0 0 0 0 0 0 0 0 0 0
0 0 0 0 0 0 0 0 0 0 0 0 0 0 0 0 0 0 0 0 0 0 0 0 0 0 0 0 0 0 0 0 0 0 0 0 0 0 0 0 0 0 0
0 0 0 0 0 0 0 0 0 0 0 0 0 0 0 0 0 0 0 0 0 0 0 0 0 0 0 0 0 0 0 0 0 0 0 0 0 0 0 0 0 0 0
0 0 0 0 0 0 0 0 0 0 0 0 0 0 0 0 0 0 0 0 0 0 0 0 0 0 0 0 0 0 0 0 0 0 0 0 0 0 0 0 0 0 0
0 0 0 0 0 0 0 0 0 0 0 0 0 0 0 0 0 0 0 0 0 0 0 0 0 0 0 0 0 0 0 0 0 0 0 0 0 0 0 0 0 0 0
0 0 0 0 0 0 0 0 0 0 0 0 0 0 0 0 0 0 0 0 0 0 0 0 0 0 0 0 0 0 0 0 0 0 0 0 0 0 0 0 0 0 0
0 0 0 0 0 0 0 0 0 0 0 0 0 0 0 0 0 0 0 0 0 0 0 0 0 0 0 0 0 0 0 0 0 0 0 0 0 0 0 0 0 0 0
0 0 0 0 0 0 0 0 0 0 0 0 0 0 0 0 0 0 0 0 0 0 0 0 0 0 0 0 0 0 0 0 0 0 0 0 0 0 0 0 0 0 0
0 0 0 0 0 0 0 0 0 0 0 0 0 0 0 0 0 0 0 0 0 0 0 0 0 0 0 0 0 0 0 0 0 0 0 0 0 0 0 0 0 0 0
0 0 0 0 0 0 0 0 0 0 0 0 0 0 0 0 0 0 0 0 0 0 0 0 0 0 0 0 0 0 0 0 0 0 0 0 0 0 0 0 0 0 0
Wind_Speed
8 8 7 7 7 8 7 7 6 5 5 4 4 4 3 3 2 2 2 2 3 3 3 5 5 5 4 4 3 3 3 3 3 1 1 1 1 1 1 1 2 3 4
7 8 7 7 8 8 8 8 8 8 7 6 5 5 5 5 4 4 3 2 2 3 3 3 4 4 4 4 3 4 3 3 3 3 1 1 1 1 1 1 2 3 4
6 7 8 8 8 8 9 9 9 8 8 8 7 7 6 6 5 5 4 3 3 3 3 3 3 4 4 3 3 3 3 3 2 3 2 1 1 1 1 1 2 3 4
6 7 7 8 8 8 8 8 9 8 8 8 8 8 7 7 7 6 4 3 4 4 4 4 3 3 3 4 3 3 3 3 3 3 2 2 1 1 2 2 2 2 3
6 6 7 7 7 7 8 8 8 8 9 8 8 8 7 7 7 7 4 4 4 4 4 4 4 6 6 4 3 3 4 3 3 3 2 2 2 2 2 2 3 3 3
5 6 6 7 7 7 7 7 7 7 8 8 8 8 8 8 10 11 7 4 4 4 4 4 5 6 8 9 9 7 5 4 3 3 2 3 2 2 2 3 3 3 2
5 5 6 6 7 7 8 8 7 7 7 8 8 8 8 9 13 12 11 5 4 3 4 3 4 5 5 5 7 8 8 7 5 4 4 3 2 2 3 3 3 3 3
5 5 5 6 6 6 6 7 7 6 6 6 7 7 7 10 15 14 11 5 5 5 4 4 5 5 5 5 7 7 8 7 5 5 5 4 4 3 3 3 4 5 5
5 5 5 6 6 6 6 6 5 5 5 5 6 7 7 9 14 14 10 4 5 6 6 7 6 6 8 8 7 7 7 6 9 11 10 8 9 9 6 4 4 5 4
5 5 5 5 5 5 5 4 4 4 4 5 6 6 7 7 13 14 11 4 5 5 5 7 11 9 8 7 6 6 6 4 4 5 6 6 6 7 7 4 3 4 4
4 4 4 4 3 4 4 3 3 3 4 4 5 5 7 8 10 14 13 5 4 5 5 5 5 10 11 10 7 5 5 4 4 5 5 5 5 5 5 5 4 4 4
3 2 2 3 4 4 3 4 4 4 4 4 4 5 4 6 8 10 12 11 8 6 5 4 5 10 11 10 7 7 7 5 4 5 5 4 4 4 4 5 6 6 6
2 1 1 2 2 3 4 4 4 4 4 3 4 4 4 4 6 10 10 11 10 6 4 6 6 6 7 6 8 7 5 4 4 5 4 3 3 3 4 4 6 7 7
2 1 1 2 3 4 4 4 4 4 4 4 4 4 3 4 5 6 4 3 5 5 3 4 6 7 5 4 4 5 4 4 4 4 3 3 3 3 3 3 3 4 5
3 3 2 3 2 2 3 3 3 3 3 2 3 4 4 4 4 7 5 4 4 3 2 0 1 2 3 3 3 3 3 3 4 3 3 3 3 3 2 2 3 3 4
1 2 2 2 2 1 3 3 3 3 4 4 4 3 3 4 4 6 7 8 8 8 4 2 3 3 3 3 3 3 3 3 3 3 3 2 2 2 2 2 2 4 4
1 2 1 1 1 2 2 2 3 1 1 1 2 3 3 2 3 4 6 8 7 6 2 2 3 3 2 3 3 3 3 2 2 3 2 2 2 2 2 2 3 3 3
1 2 2 1 1 1 1 1 2 3 3 3 3 3 2 1 2 3 4 4 2 1 2 2 3 2 2 2 2 2 2 2 2 2 2 2 2 2 2 3 3 3 2
3 2 2 2 2 2 2 2 2 2 2 3 4 3 5 3 4 4 3 1 1 1 2 2 2 2 2 2 2 2 2 2 2 2 2 2 2 2 2 3 3 2 1
2 2 2 2 3 3 3 3 3 2 2 2 3 4 4 3 2 2 2 1 0 1 2 2 2 2 2 2 1 1 1 1 1 1 1 1 1 2 2 2 2 1 1
3 4 7 3 3 4 3 3 3 3 3 2 3 4 6 3 2 3 3 2 2 2 2 2 2 2 1 1 1 1 1 2 2 1 2 1 1 1 1 1 1 2 2
3 4 5 5 4 4 3 3 3 3 3 3 3 4 6 3 3 3 3 3 3 2 3 3 3 3 3 2 1 1 1 1 2 2 2 2 1 1 1 1 1 1 2
3 3 4 4 5 5 4 3 3 3 4 4 4 5 5 4 4 4 3 4 4 3 3 2 2 3 3 3 2 1 1 1 2 3 2 2 2 1 1 1 2 2 1
5 5 5 4 4 4 4 4 5 5 4 4 4 4 6 6 5 5 4 4 4 4 4 4 4 5 6 4 3 2 1 1 2 2 1 1 1 1 1 2 2 2 2
5 5 5 4 4 4 4 5 5 5 4 4 4 4 4 5 5 5 5 5 6 5 6 6 4 4 6 7 6 4 5 5 5 2 1 0 1 1 1 1 2 2 2
5 5 4 4 4 4 4 4 4 4 4 4 4 4 4 4 5 5 5 5 5 5 6 5 7 8 7 7 8 10 11 9 7 4 1 1 2 2 2 2 3 2 2
Wind_Direction
4 4 6 9 15 16 12 8 8 9 11 20 30 38 47 54 69 101 126 148 164 175 182 181 180 172 169 170 164 165 169 163 174 177 153 142 146 123 140 182 155 154 159
6 5 9 17 18 17 13 11 13 16 18 24 37 41 47 49 51 62 75 102 141 149 152 147 149 147 146 148 156 162 167 168 158 163 154 141 137 126 137 158 151 145 133
11 10 13 19 19 17 15 12 17 21 23 26 34 40 45 46 43 45 49 65 81 94 106 120 126 134 144 150 154 154 156 149 137 144 146 146 128 131 118 118 117 110 124
18 16 18 19 19 19 17 17 22 20 26 30 34 39 42 43 41 35 36 50 66 72 77 88 103 118 139 153 154 151 144 140 139 138 142 144 140 140 126 124 108 99 104
26 25 20 20 21 19 20 21 23 21 27 29 36 40 38 40 34 25 23 42 64 71 70 81 94 102 99 110 123 133 135 135 141 139 138 125 124 123 140 129 114 102 83
30 29 24 26 23 19 20 22 26 26 27 31 38 43 40 36 30 28 28 30 54 69 71 77 97 101 101 96 95 95 101 119 123 123 122 120 125 129 125 123 126 122 104
34 33 32 33 30 24 21 21 25 29 30 33 37 42 43 34 32 29 25 30 51 64 67 72 90 93 96 100 94 85 70 69 93 117 115 119 123 135 130 126 126 115 113
34 29 36 37 31 26 23 23 24 27 30 31 35 37 40 33 29 26 25 43 53 63 61 58 73 73 73 83 92 80 67 53 65 83 92 82 80 86 107 120 119 101 92
38 29 37 39 32 24 23 25 23 24 28 33 37 36 41 34 27 26 22 41 58 62 61 56 57 64 66 82 96 97 90 77 72 83 91 90 80 72 78 91 102 112 111
41 34 34 39 38 27 20 20 18 25 28 39 43 42 45 42 32 30 24 32 49 59 60 57 53 56 58 80 94 98 100 103 104 93 83 75 71 67 72 88 109 118 119
48 41 34 28 43 41 13 11 23 27 26 41 51 52 51 44 39 37 34 33 37 56 59 54 45 51 60 68 76 89 98 102 97 93 82 69 60 54 54 61 75 103 107
63 44 52 39 26 42 26 14 18 20 29 38 46 48 51 50 41 37 40 44 48 58 59 55 50 56 60 62 65 63 66 75 83 81 75 68 65 57 50 55 65 69 75
112 74 63 89 68 39 30 28 21 19 25 29 36 42 42 44 33 32 42 51 56 63 61 62 59 61 58 58 55 54 61 73 80 86 87 82 77 74 63 59 59 62 56
147 137 83 69 68 63 42 36 39 24 18 19 23 26 38 46 25 8 7 43 61 62 66 65 64 64 61 50 51 55 58 73 90 96 99 94 85 76 73 84 94 89 71
179 164 140 109 95 89 90 55 57 69 58 34 17 16 26 36 13 9 18 20 20 22 354 49 75 69 64 56 52 53 62 67 72 78 92 92 87 82 76 76 87 91 96
137 111 124 140 143 151 142 125 54 80 99 77 63 60 70 60 21 19 21 16 10 4 19 61 72 71 73 77 75 61 57 57 63 77 85 94 104 107 96 73 90 102 109
231 149 145 147 164 196 181 167 163 155 90 54 67 75 85 55 15 5 2 355 345 354 33 68 79 79 75 76 78 80 72 62 56 69 80 84 90 98 99 87 85 94 105
239 137 161 187 227 242 220 210 179 170 181 194 208 210 194 217 306 324 338 342 337 19 59 75 78 74 71 76 80 82 78 63 60 70 70 67 69 86 91 91 89 92 108
220 188 190 191 210 232 225 229 222 203 190 165 154 188 215 228 267 287 308 266 216 124 107 89 90 89 79 77 75 81 89 82 72 76 77 60 61 79 87 97 101 100 103
217 174 177 219 238 231 221 219 221 217 213 190 166 166 174 196 221 220 222 248 169 128 126 125 115 109 109 105 99 84 115 124 105 100 104 74 62 87 109 116 132 147 124
210 189 190 216 246 251 235 223 217 209 215 195 162 154 162 197 212 184 182 195 198 174 159 152 149 152 141 138 166 217 212 172 155 143 146 152 119 95 114 128 131 126 121
218 199 186 203 222 235 240 238 232 220 216 197 166 164 177 202 231 209 193 188 186 174 158 158 174 172 165 174 209 232 225 189 162 162 163 151 142 158 155 136 123 122 133
224 239 220 211 211 216 217 233 245 239 228 215 186 169 179 205 215 213 204 187 173 173 168 166 182 174 177 190 192 188 245 213 166 141 136 155 172 200 194 166 156 156 155
212 229 233 229 221 214 207 214 227 230 220 216 211 190 185 193 200 202 198 183 174 177 177 181 197 201 191 181 179 176 173 86 95 111 131 160 191 211 189 167 177 197 159
206 220 224 223 227 222 215 218 225 231 222 210 210 208 198 190 192 194 189 182 179 184 188 186 192 205 205 190 182 170 152 137 113 70 79 150 243 232 218 196 196 202 188
205 217 223 221 223 229 227 225 228 232 230 219 209 205 202 197 194 191 186 182 183 188 191 191 196 197 202 202 196 178 170 170 163 153 119 317 257 227 210 220 227 218 210